Flag for Chad Weather past 2 weeks in Ndjamena, Chad

Now
86 °F

Clear.


Feels Like: 92 °F
Forecast: 86 / 106 °F
Wind: 3 mph from Southwest

Location: Ndjamena


UV Index: 10 (Very high)

Visibility: 10 mi


Pressure: 29.74 "Hg

Humidity: 62%

Dew point: 72 °F

Location of NdjamenaLocation

Historic Weather in Ndjamena

°F

Ndjamena temperature yesterday

Maximum temperature yesterday: 100 °F (at 1:00 PM)
Minimum temperature yesterday: 86 °F (at 4:00 AM)
Average temperature yesterday: 93 °F

Past Weeks' High & Low Weather Summary

 TemperatureHumidityPressure
High109 °F (Apr 15, 2:00 PM)66% (Apr 13, 6:00 AM)29.95 "Hg (Apr 13, 6:00 AM)
Low70 °F (Apr 5, 6:00 AM)7% (Apr 10, 10:00 AM)29.65 "Hg (Apr 10, 4:00 PM)
Average93 °F31%29.77 "Hg
* Reported Midnight between Apr 2 and Apr 3 — Midnight between Apr 17 and Apr 18, Ndjamena, Weather by CustomWeather, © 2014

Note: Actual official high and low records may vary slightly from our data, if they occured in-between our weather recording intervals... More about our weather records

Advertising

Historic Weather Conditions — Data for Previous 24 hours

 ConditionsComfort  
Time TempWeatherWind HumidityBarometerVisibility
12:00 AM
Apr 18
86 °FClear.3 mph62%29.74 "Hg10 mi
11:00 PM
Apr 17
88 °FClear.3 mph59%29.74 "Hg10 mi
10:00 PM90 °FClear.3 mph55%29.74 "Hg10 mi
9:00 PM91 °FClear.5 mph52%29.74 "Hg10 mi
8:00 PMN/AClear.No windN/AN/A10 mi
7:00 PM95 °FClear.9 mph47%29.71 "Hg10 mi
6:00 PM97 °FSunny.9 mph47%29.71 "Hg10 mi
5:00 PM97 °FScattered clouds.12 mph47%29.68 "HgN/A
4:00 PM100 °FScattered clouds.9 mph45%29.68 "HgN/A
3:00 PM100 °FScattered clouds.12 mph45%29.71 "Hg4 mi
2:00 PM100 °FScattered clouds.14 mph45%29.71 "Hg4 mi
1:00 PM100 °FSandstorm.14 mph45%29.77 "Hg3 mi
12:00 PM99 °FSandstorm.23 mph47%29.77 "Hg2 mi
11:00 AM95 °FHaze.23 mph53%29.80 "Hg1 mi
10:00 AM95 °FHaze.21 mph53%29.80 "Hg1 mi
9:00 AM93 °FClear.2 mph56%29.80 "Hg4 mi
8:00 AM90 °FSunny.13 mph59%29.77 "Hg10 mi
7:00 AM88 °FSunny.14 mph59%29.74 "Hg10 mi
6:00 AM88 °FSunny.13 mph55%29.74 "Hg10 mi
5:00 AM90 °FClear.12 mph52%29.71 "Hg10 mi
4:00 AM86 °FClear.7 mph55%29.68 "Hg10 mi
3:00 AM88 °FClear.No wind55%29.68 "Hg10 mi
1:00 AM88 °FClear.No wind55%29.71 "Hg10 mi
Weather by CustomWeather, © 2014

See weather overview